This demonstration page uses our WeatherBlox Daily Observations layout. Learn more.

Left ArrowRight Arrow

Hourly Observations for April 26, 2018

Temp ( °F °C ) Dew Point ( °F °C ) Humidity (%) Winds ( mph kmh ) Pressure ( in mb ) Visibility ( mi km ) Precip ( " mm )
12:53 am 00:53 Clear 50 10 36 2.2 59 59 NNW 5 7 29.95 1014 10 16 0.00 0.00
1:53 am 01:53 Clear 49 9.4 35 1.7 59 59 WNW 5 7 29.94 1014 10 16 0.00 0.00
2:53 am 02:53 Clear 46 7.8 38 3.3 73 73 Calm 29.93 1014 10 16 0.00 0.00
3:53 am 03:53 Clear 42 5.6 38 3.3 85 85 Calm 29.92 1013 10 16 0.00 0.00
4:53 am 04:53 Clear 40 4.4 36 2.2 86 86 NNW 3 6 29.92 1013 10 16 0.00 0.00
5:53 am 05:53 Clear 38 3.3 35 1.7 89 89 Calm 29.92 1013 10 16 0.00 0.00
6:53 am 06:53 Sunny 37 2.8 33 0.6 86 86 Calm 29.92 1013 10 16 0.00 0.00
7:53 am 07:53 Sunny 40 4.4 37 2.8 89 89 Calm 29.92 1013 10 16 0.00 0.00
8:53 am 08:53 Sunny 47 8.3 36 2.2 66 66 NNE 3 6 29.93 1014 10 16 0.00 0.00
9:53 am 09:53 Sunny 51 10.6 39 3.9 64 64 Calm 29.96 1015 10 16 0.00 0.00
10:53 am 10:53 Sunny 55 12.8 40 4.4 57 57 Calm 29.95 1014 10 16 0.00 0.00
11:53 am 11:53 Sunny 59 15 40 4.4 49 49 Calm 29.93 1014 10 16 0.00 0.00
12:53 pm 12:53 Sunny 62 16.7 34 1.1 35 35 ENE 5 7 29.91 1013 10 16 0.00 0.00
1:53 pm 13:53 Sunny 65 18.3 32 0 29 29 VRB 6 9 29.89 1012 10 16 0.00 0.00
2:53 pm 14:53 Sunny 66 18.9 30 -1.1 26 26 Calm 29.88 1012 10 16 0.00 0.00
3:53 pm 15:53 Sunny 67 19.4 31 -0.6 26 26 N 5 7 29.85 1011 10 16 0.00 0.00
4:53 pm 16:53 Sunny 68 20 27 -2.8 21 21 Calm 29.84 1010 10 16 0.00 0.00
5:53 pm 17:53 Sunny 67 19.4 33 0.6 28 28 N 3 6 29.84 1011 10 16 0.00 0.00
6:53 pm 18:53 Sunny 67 19.4 36 2.2 32 32 NNE 3 6 29.85 1011 10 16 0.00 0.00
7:53 pm 19:53 Sunny 67 19.4 31 -0.6 26 26 NE 3 6 29.84 1011 10 16 0.00 0.00
8:53 pm 20:53 Clear 57 13.9 44 6.7 62 62 Calm 29.85 1011 10 16 0.00 0.00
9:53 pm 21:53 Clear 55 12.8 44 6.7 67 67 Calm 29.85 1011 10 16 0.00 0.00
10:53 pm 22:53 Clear 49 9.4 43 6.1 80 80 Calm 29.85 1011 10 16 0.00 0.00
11:53 pm 23:53 Clear 47 8.3 42 5.6 83 83 Calm 29.83 1010 10 16 0.00 0.00

Powered by AerisWeather